This demonstration page uses our WeatherBlox Daily Observations layout. Learn more.

Left ArrowRight Arrow

39.51506, -84.39828

Hourly Observations for June 29, 2018

Temp ( °F °C ) Dew Point ( °F °C ) Humidity (%) Winds ( mph kmh ) Pressure ( in mb ) Visibility ( mi km ) Precip ( " mm )
12:15 am 00:15 Clear 68 20 67 19.6 98 98 N N/A 29.97 1015 10 16 N/A
12:35 am 00:35 Clear 68 19.9 67 19.4 97 97 N N/A 29.97 1015 10 16 N/A
12:50 am 00:50 Clear 68 20 67 19.5 97 97 N N/A 29.97 1015 10 16 N/A
1:15 am 01:15 Clear 67 19.7 67 19.2 97 97 N 3 6 29.97 1015 10 16 N/A
1:35 am 01:35 Clear 67 19.5 66 19.1 98 98 NNE 5 7 29.97 1015 10 16 N/A
1:55 am 01:55 Clear 67 19.4 66 18.9 97 97 N N/A 29.97 1015 10 16 N/A
2:15 am 02:15 Clear 67 19.5 66 19.1 98 98 N N/A 29.97 1015 10 16 N/A
2:35 am 02:35 Clear 66 18.9 65 18.5 98 98 N 3 6 29.97 1015 10 16 N/A
2:55 am 02:55 Clear 67 19.2 65 18.5 96 96 N N/A 29.97 1015 10 16 N/A
3:15 am 03:15 Clear 66 18.9 65 18.5 98 98 N N/A 29.97 1015 10 16 N/A
3:35 am 03:35 Clear 65 18.6 65 18.3 98 98 N N/A 29.97 1015 7 11 N/A
3:55 am 03:55 Clear 65 18.6 65 18.2 98 98 N N/A 29.97 1015 10 16 N/A
4:15 am 04:15 Clear 65 18.5 64 17.9 96 96 N N/A 29.97 1015 10 16 N/A
4:35 am 04:35 Clear 65 18.2 64 17.8 98 98 N N/A 29.97 1015 7 11 N/A
4:55 am 04:55 Clear 65 18.1 64 17.7 98 98 N N/A 29.97 1015 10 16 N/A
5:15 am 05:15 Clear 64 18 64 17.6 98 98 N N/A 29.97 1015 10 16 N/A
5:35 am 05:35 Clear 64 17.6 63 17.2 98 98 N N/A 30.00 1016 10 16 N/A
5:55 am 05:55 Clear 64 18 64 17.5 97 97 N N/A 30.00 1016 10 16 N/A
6:15 am 06:15 Sunny 64 17.8 63 17.4 98 98 N N/A 30.00 1016 10 16 N/A
6:35 am 06:35 Sunny 64 17.7 63 17.4 98 98 NNE 3 6 30.00 1016 7 11 N/A
6:55 am 06:55 Sunny 64 18 64 17.6 98 98 N N/A 30.03 1017 7 11 N/A
7:15 am 07:15 Sunny 66 18.9 65 18.5 98 98 N N/A 30.03 1017 7 11 N/A
7:35 am 07:35 Sunny 67 19.6 66 19 96 96 N N/A 30.03 1017 10 16 N/A
7:55 am 07:55 Sunny 69 20.4 67 19.3 93 93 N N/A 30.06 1018 10 16 N/A
8:15 am 08:15 Sunny 71 21.7 68 20.1 91 91 NNE 3 6 30.06 1018 10 16 N/A
8:35 am 08:35 Sunny 73 22.6 68 20.2 86 86 N N/A 30.06 1018 10 16 N/A
8:55 am 08:55 Sunny 75 23.7 69 20.7 83 83 N N/A 30.06 1018 10 16 N/A
9:15 am 09:15 Sunny 76 24.5 69 20.7 79 79 N N/A 30.06 1018 10 16 N/A
9:35 am 09:35 Sunny 78 25.7 71 21.4 77 77 N N/A 30.06 1018 10 16 N/A
9:55 am 09:55 Sunny 79 26.2 70 20.9 73 73 N N/A 30.06 1018 10 16 N/A
10:15 am 10:15 Sunny 81 27.3 71 21.8 72 72 SW 5 7 30.06 1018 10 16 N/A
10:35 am 10:35 Sunny 83 28.1 71 21.7 68 68 S 7 11 30.06 1018 10 16 N/A
10:55 am 10:55 Sunny 84 28.8 71 21.6 65 65 S 7 11 30.03 1017 10 16 N/A
11:15 am 11:15 Sunny 84 28.8 69 20.7 62 62 S 9 15 30.03 1017 10 16 N/A
11:35 am 11:35 Partly Cloudy 85 29.2 69 20.8 61 61 SSW 7 11 30.03 1017 10 16 N/A
11:55 am 11:55 Sunny 85 29.3 69 20.6 59 59 SSW 8 13 30.03 1017 10 16 N/A
12:15 pm 12:15 Sunny 86 30 70 20.9 58 58 SSW 9 15 30.03 1017 10 16 N/A
12:35 pm 12:35 Sunny 86 30 69 20.8 58 58 S 6 9 30.00 1016 10 16 N/A
12:55 pm 12:55 Sunny 86 30.2 69 20.5 56 56 SSW 8 13 30.00 1016 10 16 N/A
1:15 pm 13:15 Sunny 87 30.4 70 21 57 57 S 8 13 30.00 1016 10 16 N/A
1:35 pm 13:35 Sunny 88 31 70 21.2 56 56 SSW 8 13 30.00 1016 10 16 N/A
1:55 pm 13:55 Sunny 88 30.9 69 20.8 55 55 SSW 8 13 30.00 1016 10 16 N/A
2:15 pm 14:15 Sunny 88 31 69 20.6 54 54 S 5 7 30.00 1016 10 16 N/A
2:35 pm 14:35 Sunny 89 31.6 69 20.8 53 53 S 8 13 30.00 1016 10 16 N/A
2:55 pm 14:55 Sunny 89 31.7 70 21.3 54 54 S 6 9 30.00 1016 10 16 N/A
3:15 pm 15:15 Sunny 88 31.3 69 20.3 52 52 SSW 8 13 30.00 1016 10 16 N/A
3:35 pm 15:35 Sunny 89 31.5 69 20.3 51 51 SW 6 9 29.97 1015 10 16 N/A
3:55 pm 15:55 Sunny 90 32.3 69 20.8 51 51 S 8 13 29.97 1015 10 16 N/A
4:15 pm 16:15 Sunny 90 32.2 69 20.7 51 51 SSW 8 13 29.97 1015 10 16 N/A
4:35 pm 16:35 Sunny 90 32.4 70 21.2 52 52 WSW 6 9 29.97 1015 10 16 N/A
4:55 pm 16:55 Partly Cloudy 91 32.5 70 21.3 52 52 SSW 7 11 29.97 1015 10 16 N/A
5:15 pm 17:15 Sunny 91 32.5 69 20.8 50 50 S 8 13 29.97 1015 10 16 N/A
5:35 pm 17:35 Sunny 91 32.5 69 20.5 49 49 S 9 15 29.97 1015 10 16 N/A
5:55 pm 17:55 Sunny 90 32.4 69 20.7 50 50 S 6 9 29.97 1015 10 16 N/A
6:15 pm 18:15 Sunny 90 32.4 70 20.9 51 51 S 9 15 29.97 1015 10 16 N/A
6:35 pm 18:35 Sunny 90 32.2 69 20.7 51 51 S 9 15 29.97 1015 10 16 N/A
6:55 pm 18:55 Sunny 89 31.8 70 20.9 52 52 SSE 8 13 29.97 1015 10 16 N/A
7:15 pm 19:15 Sunny 89 31.9 70 21.1 53 53 S 9 15 29.97 1015 10 16 N/A
7:35 pm 19:35 Sunny 88 31.3 70 20.9 54 54 S 8 13 29.97 1015 10 16 N/A
7:55 pm 19:55 Sunny 88 31 69 20.8 55 55 S 10 17 29.97 1015 10 16 N/A
8:15 pm 20:15 Sunny 87 30.5 70 21.1 57 57 S 7 11 29.97 1015 10 16 N/A
8:35 pm 20:35 Sunny 86 30 69 20.8 58 58 S 8 13 29.97 1015 10 16 N/A
8:55 pm 20:55 Sunny 85 29.6 69 20.8 59 59 SSE 6 9 29.97 1015 10 16 N/A
9:15 pm 21:15 Clear 84 28.9 69 20.7 61 61 SSE 5 7 29.97 1015 10 16 N/A
9:35 pm 21:35 Clear 81 27.3 70 21.2 69 69 SW 3 6 30.00 1016 10 16 N/A
9:55 pm 21:55 Clear 77 25 71 21.7 82 82 N N/A 30.00 1016 10 16 N/A
10:15 pm 22:15 Clear 76 24.2 71 21.8 87 87 N N/A 30.00 1016 10 16 N/A
10:35 pm 22:35 Clear 75 23.7 72 22 90 90 N N/A 30.03 1017 10 16 N/A
10:55 pm 22:55 Clear 73 23 71 21.7 92 92 N N/A 30.03 1017 10 16 N/A
11:15 pm 23:15 Clear 73 22.7 71 21.6 94 94 N N/A 30.03 1017 7 11 N/A
11:35 pm 23:35 Clear 73 22.7 71 21.6 94 94 N N/A 30.03 1017 10 16 N/A
11:55 pm 23:55 Clear 72 22 70 21 94 94 N N/A 30.03 1017 10 16 N/A

Powered by AerisWeather